2018-111AH (43907 NORAD) Tracking and Keplerian Element Data

This shows tracking and keplerian element data for the satellite.

Feedback or suggestion? Click here.




ElementValue
Catalog43907
Name2018-111AH
Epoch Orbit316
Epoch Day16.83090048
Epoch Year2019
RAAN286.1804
Inclination97.2998
Eccentricity0.0022126
Argument of Perigee166.2484
Mean Anonmoly193.9361
Mean Motion15.23985703
Decay Rate6.91E-06
L11 43907U 18111AH 19016.83090048 .00000691 00000-0 31256-4 0 9991
L22 43907 97.2998 286.1804 0022126 166.2484 193.9361 15.23985703 3167

Live tracking and technical data element details for 2018-111AH (NORAD 43907). 2018-111AH can be tracked NOW for your location showing map with azimuth and elevation plus other details from your city location.

Track the satellite on the map from your city or location and see movement details for azimuth, elevation, latitude, longitude, range, height, and movement on the map or in text.







IsCatalogInMostPopularTable: catalog: 43907, numindb: 17
Update: records affected: 1



GetName: 43907 2018-111AH

Hit Count: updated at: Thu, 17 Jan 2019 15:09:32 GMT